Погода в Бишкеке

Погода в Бишкеке : погода сейчас, прогноз погоды и архив. Всё, что Вы хотите узнать о погоде в Бишкеке!

Поиск расширенной информации на нашем сайте:

Другие новости

Новости СМИ2

Главная страница сайта

Новости сайта

03.07.2017

Напоминаем, что на нашем специализированном сайте Метеоцентр.Азия вы можете получить высокодетализированные автоматические прогнозы погоды по пунктам России, СНГ и мира в авиационном формате (включающие направление и скорость ветра, видимость, явления погоды, количество и форму облачности, нижнюю и верхнюю границу облачности).


Погода в Бишкеке - сегодня

Время (UTC), дата Ветер
(°,м/с) 
Видим.   Явления Облачность Т
(°С)
Тd
(°С)
f(%) Тe
(°С)
Pmin
(гПа)
dP
(гПа)
Po
(мм)
O2
(г/м3)
Тmin Tmax R s Состояние
почвы
09 16.06.18 050 (СВ) 20000 м    4/3 600 м кучево-дожд., средняя, верхняя 
[Cb cap|Ac trans|Ci fib]
+25.6 +9.4 36 +27  1009  -1.2  695  254           
12 16.06.18 140 (ЮВ) 20000 м    3/1 1000 м средняя 
[Cu hum|Ac trans]
+26.2 +8.2 32 +27  1007.9  -0.9  694  254           
15 16.06.18 140 (ЮВ) н/о    1/0 средняя 
[Ac trans]
+23.8 +11.1 45 +28  1008.1  -0.3  694  255    +27.2       
18 16.06.18 180 (Ю) н/о    ясно 
+19.1 +11.7 62 +26  1008.2  -1.2  693  259    +27.2       
21 16.06.18 тихо ()   н/о    ясно 
+16.2 +11.8 75 +22  1007.3  -1.6  692  261           
00 17.06.18 180 (Ю) 1-2  20000 м    ясно 
+14.9 +11 77 +20  1006.5  -1.1  691  262           
03 17.06.18 270 (З) 20000 м    ясно 
+22.2 +10.4 47 +26  1003.8  -0.5  691  255           
06 17.06.18 270 (З) 20000 м    1/1 1000 м 
[Cu hum]
+26 +10.7 38 +30  1001.7  -0.9  690  252           
09 17.06.18 230 (ЮЗ) 20000 м    3/3 1000 м 
[Cu hum]
+28.9 +7.4 26 +29  1000  -0.9  689  250           
12 17.06.18 320 (СЗ) 20000 м    5/3 1000 м верхняя 
[Cu hum|Cc]
+30.2 +6.2 22 +30  999.5  -0.2  689  249           
15 17.06.18 140 (ЮВ) н/о    5/0 средняя, верхняя 
[Ac trans|Ci fib]
+27.6 +12.5 39 +34  1000.2  0.2  689  250    +31.5       
18 17.06.18 160 (Ю) н/о    3/0 верхняя 
[Ci fib]
+23 +10.7 46 +27  1001.6  689  254    +31.5       
21 17.06.18 тихо ()   н/о  в посл. час ливневой дождь  10/10 600 м кучево-дожд. 
[Cb cap]
+20.6 +12.3 59 +27  1001.7  -0.5  689  256           
00 18.06.18 180 (Ю) 1-4  20000 м  в посл. час гроза{ливн. осадки}  6/3 600 м кучево-дожд., средняя 
[Cb cap|Ac trans]
+20.2 +10.9 55 +24  1002.7  0.8  690  257           
03 18.06.18 040 (СВ) 20000 м    5/0 средняя 
[Ac trans]
+28 +12 37 +34  1001.2  0.7  690  250          сухая 
06 18.06.18 310 (СЗ) 20000 м    1/0 
[Cu hum]
+29.4 +7.1 25 +29  1000.8  -0.2  690  250         
09 18.06.18 310 (СЗ) 20000 м    3/3 1000 м 
[Cu hum]
+31.4 +7.3 22 +31  1099  -1.1  689  248           
12 18.06.18 220 (ЮЗ) 20000 м    5/4 1000 м верхняя 
[Cu hum|Ci fib]
+32.4 +6.4 20 +32  1098.8  689  247           
15 18.06.18 180 (Ю) н/о    10/4 600 м кучево-дожд., средняя, верхняя 
[Cb cap|Ac trans|Ci fib]
+26.6 +11.7 39 +32  1001.1  0.8  690  251    +33.2       
18 18.06.18 тихо () -2  н/о  {ливн. осадки}  10/0 средняя, верхняя 
[Ac trans|Ci fib]
+25.2 +10.3 39 +28  1001.9  0.3  690  253    +33.2       
21 18.06.18 тихо ()   н/о    6/0 средняя, верхняя 
[Ac trans|Ci fib]
+22 +10 46 +25  1002.2  -0.5  690  255           
00 19.06.18 220 (ЮЗ) 20000 м    10/0 средняя, верхняя 
[Ac trans|Ci fib]
+20.8 +8 44 +21  1004.4  1.6  691  257           
03 19.06.18 310 (СЗ) 20000 м    8/0 верхняя 
[Ci fib]
+23.9 +6.7 33 +24  1004.1  0.5  691  255           
06 19.06.18 050 (СВ) 1-5  20000 м    8/1 1000 м средняя, верхняя 
[Cu hum|Ac trans|Ci fib]
+28.1 +4.8 23 +28  1002  -0.8  691  251           
09 19.06.18 280 (З) 20000 м    8/3 600 м кучево-дожд., средняя, верхняя 
[Cb cap|Ac trans|Ci fib]
+30.2 +5.6 21 +30  1000.3  -1.1  690  249           
Время (UTC), дата Ветер
(°,м/с) 
Видим.   Явления Облачность Т
(°С)
Тd
(°С)
f(%) Тe
(°С)
Pmin
(гПа)
dP
(гПа)
Po
(мм)
O2
(г/м3)
Тmin Tmax R s Состояние
почвы

Для получения пояснительной информации подведите курсор к названию столбца.

ПОГОДА в Бишкеке - архив

Всё, что Вы хотите узнать о погоде в Бишкеке - удобно и подробно!

Выберите нужную дату (начиная с 1 января 2015* года) и нажмите кнопку "Найти".
Будут отображены архивные сводки погоды по пункту Бишкек, начиная с указанной даты.


Отображать данные в формате CSV (для использования в таблицах Excel)


Внимание! Наш архив погоды предназначен исключительно для личного некоммерческого использования в познавательных целях. Если Вам необходимы официальные справки о состоянии погоды (для производственных, юридических, коммерческих и т.п. целей), обращайтесь в органы Росгидромета.

*Примечание: данная дата относится к архиву по метеостанциям СССР (Россия, СНГ, Балтия).
Архив по метеостанциям Зарубежной Европы и Азии (кроме Китая) хранится 10 дней, по другим регионам земного шара (Китай, Африка, Америка, Австралия, Океания) - 1 день.

Бишкек - район местоположения метеостанции


Название, широта, долгота, высота метеостанции:
Бишкек (город) 42.9°ш. 74.5°д. 760 м над ур. моря [Кыргызстан]

Дополнительная информация

В oтличие oт бoльшинства пoгoдных сайтoв мы публикуем пoдрoбную метеoинфoрмацию в детальнoм прoфессиoнальнoм фoрмате.

Характеристики температуры и влажнoсти вoздуха измеряются на высoте 2 м в тени вдали oт зданий и деревьев.
Скoрoсть ветра измеряется на высoте 10 м (на урoвне рoста челoвека скoрoсть ветра ниже в 1.5-2 раза). Если метеoстанция нахoдится в гoрoде или в лесу, тo скoрoсть ветра занижена на 2-4 м/с пo сравнению с oткрытым местoм. Скoрoсть ветра над акватoриями крупных рек и oзёр, а также на вершинах хoлмoв на 2-5 м/с выше, чем в oбычных услoвиях.
Атмoсфернoе давление в разных тoчках местнoсти мoжет значительнo oтличаться oт давления на метеoстанции, в зависимoсти oт услoвий рельефа (при пoдъёме на 10 м давление пoнижается примернo на 1 мм рт.ст.).